Regional Weather Roundup
Issued by NWS

Home | Current Version | Previous Version | Text Only | Print | Product List | Glossary Off
Versions: 1 2 3 4 5 6 7 8 9 10 11 12 13 14 15 16 17 18 19 20 21 22 23 24 25 26 27

000
ASUS45 KBOU 191606
RWRCO

WEATHER ROUNDUP FOR COLORADO
NATIONAL WEATHER SERVICE DENVER/BOULDER CO
1000 AM MDT SAT APR 19 2014

NOTE: "FAIR" INDICATES FEW OR NO CLOUDS BELOW 12000 FEET WITH NO
SIGNIFICANT WEATHER AND/OR OBSTRUCTIONS TO VISIBILITY.

COZ001>005-013-030-031-191700-
...NORTHWEST COLORADO...

CITY           SKY/WX    TMP DP  RH WIND       PRES   REMARKS
CRAIG          CLOUDY    55  37  50 NE3       30.09F
HAYDEN         CLOUDY    48  34  57 E5        30.14R
MEEKER         LGT RAIN  53  36  52 SW7       30.11R
MOUNT WERNER   CLOUDY    37  27  65 W6        30.26S
STEAMBOAT SPGS CLOUDY    49  29  46 CALM      30.12S
WALDEN         CLOUDY    46  30  53 S9        30.15R
$$

COZ006>008-011-191700-
...WEST CENTRAL VALLEYS...

CITY           SKY/WX    TMP DP  RH WIND       PRES   REMARKS
GRAND JUNCTION CLOUDY    51  48  89 NW8       30.12R
MONTROSE       CLOUDY    54  42  64 N9        30.14S
EAGLE          PTSUNNY   52  34  50 E6        30.14S
RIFLE          CLOUDY    58  38  47 W15       30.10S
DELTA          LGT RAIN  55  44  67 W6        30.13R
NUCLA            N/A     52  41  66 E5        30.18R
$$

COZ017>023-064>068-191700-
...SOUTHWEST COLORADO...

CITY           SKY/WX    TMP DP  RH WIND       PRES   REMARKS
DURANGO        CLOUDY    51  41  68 CALM      30.17F
CORTEZ         MOSUNNY   54  45  71 CALM      30.15S
PAGOSA SPRINGS PTSUNNY   48  38  68 CALM      30.21F
TELLURIDE      CLOUDY    43  37  81 CALM      30.22R
WOLF CREEK PAS SNOW      28  28 100 SW7       30.32R VSB 1/2 WCI  21
$$

COZ009-010-012-014-032>034-037-058>063-191700-
...CENTRAL COLORADO...

CITY           SKY/WX    TMP DP  RH WIND       PRES   REMARKS
ASPEN          CLOUDY    49  32  52 CALM      30.15F
BUENA VISTA    MOSUNNY   50  31  48 CALM      30.17S
COPPER MTN     LGT RAIN  34  28  80 S8        30.31R WCI  27
BERTHOUD PASS  LGT SNOW  27  18  69 S6        30.33S WCI  20
COTTONWOOD PAS MOSUNNY   48  30  49 CALM      30.23S
GUNNISON       MOSUNNY   46  32  57 S5        30.21S
KREMMLING      CLOUDY    46  32  57 CALM      30.17R
LEADVILLE      CLOUDY    37  26  64 S6        30.22R
MONARCH PASS   MOSUNNY   36  27  69 SW7       30.41R
SALIDA         MOSUNNY   56  35  46 S15G23    30.22S
SUNLIGHT       PTSUNNY   37  32  81 CALM      30.27S
WILKERSON PASS CLOUDY    37  27  65 CALM      30.31S
$$

COZ069>075-191700-
...SAN LUIS VALLEY/SANGRE DE CRISTO MOUNTAINS...

CITY           SKY/WX    TMP DP  RH WIND       PRES   REMARKS
ALAMOSA        MOSUNNY   54  34  46 W7        30.17S
LA VETA PASS   PTSUNNY   43  30  61 W8G21     30.25R
SAGUACHE       PTSUNNY   52  36  54 S8        30.19S
$$

COZ035-036-038>040-191700-
...NORTHERN COLORADO FRONT RANGE...

CITY           SKY/WX    TMP DP  RH WIND       PRES   REMARKS
DENVER INTL AP CLOUDY    56  35  45 E6        30.09R
DMNS CITY PARK   N/A     58  35  40 E17       30.07R
AURORA         CLOUDY    57  34  41 E10       30.06R
FRONT RANGE AP CLOUDY    59  37  44 E9        30.09R
ERIE MUNI ARPT CLOUDY    55  36  49 NE6       30.08R
BOULDER MUN AP CLOUDY    55  32  41 E8        30.08R
CENTENNIAL     CLOUDY    57  32  38 E13       30.08R
BROOMFIELD     CLOUDY    57  32  38 E6        30.09R
FORT COLLINS   PTSUNNY   52  37  58 E13       30.08R
LONGMONT       PTSUNNY   57  40  52 E10       30.09R
$$

COZ041-046-047-076>085-087-088-191700-
...PIKES PEAK/PALMER DIVIDE AND SOUTHERN FOOTHILLS...

CITY           SKY/WX    TMP DP  RH WIND       PRES   REMARKS
COLO. SPRINGS  CLOUDY    62  29  28 N12       30.09R
A. F. ACADEMY  CLOUDY    59  27  29 NW8       30.10R
ELLICOTT       NOT AVBL
FALCON         CLOUDY    56  28  34 N14       30.12R
FORT CARSON    CLOUDY    61  30  30 NE6       30.07R
LIMON          CLOUDY    62  35  36 N18G26    30.04R
MONUMENT HILL  CLOUDY    54  30  40 N3        30.12S
TRINIDAD       MOSUNNY   65  32  29 SW3       30.04F
$$

COZ042>045-048>051-090-091-191700-
...NORTHEAST COLORADO...

CITY           SKY/WX    TMP DP  RH WIND       PRES   REMARKS
GREELEY ARPT   CLOUDY    52  36  54 NE13      30.07R
AKRON          MOSUNNY   54  41  61 NE13      30.03R
BURLINGTON     PTSUNNY   65  42  43 N22       30.00R
WRAY           PTSUNNY   61  45  55 N21G28    29.98R
STERLING       MOSUNNY   55  41  58 NE15G21   30.02R
HOLYOKE        PTSUNNY   55  41  58 NE22      30.01R
FORT MORGAN    MOSUNNY   53  38  57 NE18      30.04R
$$

COZ086-089-092>099-191700-
...SOUTHEAST COLORADO...

CITY           SKY/WX    TMP DP  RH WIND       PRES   REMARKS
PUEBLO         CLOUDY    68  32  26 E17       30.00R
LA JUNTA       CLOUDY    65  36  34 CALM      29.98S
LAMAR          CLOUDY    69  37  30 SW10      29.95F
SPRINGFIELD      N/A     64  40  41 SW16      30.00S
$$



USA.gov is the U.S. government's official web portal to all federal, state and local government web resources and services.